[[{"header":{"parameterUnit":"m.s-1","parameterCategory":1,"la1":30.2991,"la2":30.254,"lo1":-89.0895,"lo2":-89.0444,"dy":0.0017,"dx":0.0017,"nx":28,"ny":28,"refTime":"2024-06-12T09:00:00:Z","depth":0,"parameterNumber":2,"parameterNumberName":"U-component_of_WINDS"},"data":[0,0,0,0,0,0,0,0,0,0,0,0,0,0,0,0,0,0,0,0,0,0,0,0,0,0,0,0,0,0,0,0,0,0,0,0,0,0,0,0,0,0,0,0,0,0,0,0,0,0,0,0,0,0,0,0,0,0,-0.5647,-0.5646,0,-0.5563,-0.5562,-0.5561,-0.5515,-0.5515,-0.5515,-0.5515,-0.5427,-0.5425,-0.5423,0,0,0,0,0,0,0,0,0,0,0,0,0,-0.5766,-0.5764,-0.5647,-0.5646,-0.5645,-0.5563,-0.5562,-0.5561,-0.5515,-0.5515,-0.5515,-0.5514,-0.5428,-0.5425,-0.5423,0,0,0,0,0,0,0,0,0,0,0,0,0,-0.5701,-0.5763,-0.5647,-0.5612,-0.5608,-0.5563,-0.5562,-0.5561,-0.5515,-0.5515,-0.5515,-0.5514,-0.5429,-0.5426,-0.5422,-0.5406,0,0,-0.5412,-0.5411,0,0,0,0,0,0,0,0,-0.5705,-0.5697,-0.5618,-0.5614,-0.561,-0.5549,-0.5572,-0.5509,-0.5515,-0.555,-0.5515,-0.5514,-0.5468,-0.5461,-0.5446,-0.5402,-0.5398,-0.5412,-0.541,-0.5409,-0.5408,0,0,0,0,0,0,0,-0.571,-0.57,-0.5614,-0.5617,-0.5612,-0.56,-0.5591,-0.556,-0.5511,-0.5547,-0.5544,-0.5534,-0.5466,-0.5449,-0.5444,-0.5397,-0.5412,-0.5409,-0.5407,-0.5406,-0.5334,-0.5334,0,0,0,0,0,0,-0.572,-0.5705,-0.5616,-0.5611,-0.5658,-0.5598,-0.5588,-0.5569,-0.5511,-0.5502,-0.5535,-0.5533,-0.5455,-0.5448,-0.544,-0.5417,-0.5409,-0.5405,-0.5404,-0.5334,-0.5334,-0.5334,0,0,0,0,0,0,-0.5723,-0.5713,-0.562,-0.5657,-0.5644,-0.5596,-0.5576,-0.5567,-0.5551,-0.5502,-0.5493,-0.5527,-0.5455,-0.5445,-0.5415,-0.5413,-0.5404,-0.5401,-0.5334,-0.5334,-0.5334,-0.5371,0,0,0,0,0,0,-0.5726,-0.5714,-0.5707,-0.5657,-0.5642,-0.5596,-0.5575,-0.5566,-0.5546,-0.5542,-0.5492,-0.5484,-0.5454,-0.542,-0.5411,-0.5409,-0.5398,-0.5334,-0.5334,-0.5334,-0.5369,-0.5372,-0.5374,0,0,0,0,0,-0.5731,-0.5721,-0.5707,-0.5697,-0.5633,-0.5596,-0.5588,-0.5553,-0.5546,-0.5539,-0.5507,-0.5486,-0.5415,-0.5417,-0.5407,-0.5404,-0.5334,-0.5334,-0.5334,-0.5368,-0.5371,-0.5374,0,0,0,0,0,0,-0.5772,-0.5714,-0.5698,-0.5672,-0.5639,-0.5588,-0.5579,-0.5558,-0.5527,-0.5525,-0.5483,-0.5472,-0.5446,-0.5421,-0.5425,-0.5384,-0.5372,-0.537,-0.5401,-0.5404,-0.5406,-0.5413,-0.5396,0,0,0,0,0,-0.5778,-0.5753,-0.5703,-0.5685,-0.5669,-0.5627,-0.5609,-0.5586,-0.555,-0.5536,-0.5502,-0.5469,-0.5439,-0.542,-0.5389,-0.5365,-0.5354,-0.5358,-0.536,-0.5362,-0.5362,-0.5347,-0.5348,-0.5335,-0.5335,-0.5335,0,0,-0.579,-0.5755,-0.5742,-0.5692,-0.5664,-0.5639,-0.5616,-0.559,-0.5571,-0.5532,-0.5502,-0.5476,-0.5435,-0.5408,-0.5394,-0.5386,-0.5363,-0.5363,-0.5365,-0.5363,-0.5347,-0.5348,-0.535,-0.5335,-0.5335,-0.5335,0,0,-0.58,-0.5771,-0.5752,-0.5725,-0.5683,-0.5655,-0.565,-0.5602,-0.5584,-0.5552,-0.5523,-0.5499,-0.5449,-0.5421,-0.54,-0.5399,-0.5378,-0.539,-0.5403,-0.5389,-0.539,-0.5391,-0.5391,-0.5391,-0.5389,-0.5389,-0.5389,0,-0.582,-0.5782,-0.5745,-0.5721,-0.57,-0.5664,-0.5645,-0.562,-0.557,-0.5556,-0.5549,-0.5484,-0.5454,-0.542,-0.542,-0.5404,-0.5398,-0.5396,-0.5393,-0.5394,-0.5394,-0.5393,-0.5393,-0.5391,-0.5391,-0.5391,-0.539,0,-0.5809,-0.5782,-0.5772,-0.5726,-0.5703,-0.5682,-0.5642,-0.5623,-0.5601,-0.5574,-0.5542,-0.5505,-0.5467,-0.5457,-0.5435,-0.5419,-0.5416,-0.5401,-0.5388,-0.5397,-0.5396,-0.5395,-0.5394,-0.5393,-0.5392,-0.5392,0,0,-0.5843,-0.5776,-0.5773,-0.5752,-0.5702,-0.5681,-0.5658,-0.562,-0.5605,-0.5572,-0.5551,-0.5509,-0.5495,-0.5472,-0.5446,-0.5434,-0.5436,-0.5421,-0.5419,-0.5425,-0.5416,-0.5428,-0.5428,-0.5421,-0.5421,-0.5421,-0.542,0,-0.5846,-0.5803,-0.5769,-0.5739,-0.5714,-0.5679,-0.5658,-0.5626,-0.5599,-0.5574,-0.5544,-0.5515,-0.5499,-0.5484,-0.547,-0.5439,-0.5433,-0.5438,-0.5402,-0.5401,-0.5414,-0.5428,-0.544,-0.5441,-0.5419,-0.5419,-0.5419,0,-0.5844,-0.5812,-0.578,-0.5733,-0.5721,-0.5703,-0.5666,-0.5642,-0.5604,-0.5586,-0.556,-0.5533,-0.5507,-0.5496,-0.5458,-0.5462,-0.5445,-0.5427,-0.5426,-0.5422,-0.5411,-0.5424,-0.544,-0.5441,-0.5418,-0.5418,-0.5418,0,-0.5873,-0.5822,-0.5796,-0.5778,-0.5723,-0.5711,-0.5687,-0.5649,-0.5629,-0.5596,-0.5583,-0.5547,-0.5528,-0.5501,-0.5466,-0.5461,-0.5432,-0.5418,-0.5416,-0.5417,-0.5412,-0.5413,-0.5426,-0.54,-0.54,-0.54,-0.54,0,-0.588,-0.5862,-0.5808,-0.5792,-0.577,-0.5731,-0.571,-0.5683,-0.5649,-0.5627,-0.5594,-0.5574,-0.5528,-0.5503,-0.5475,-0.5448,-0.5439,-0.5423,-0.5416,-0.5427,-0.5429,-0.5415,-0.5415,-0.54,-0.54,-0.54,-0.54,0,-0.5909,-0.5872,-0.5842,-0.5792,-0.5779,-0.5765,-0.5722,-0.5704,-0.5676,-0.5648,-0.5639,-0.5594,-0.5562,-0.5524,-0.5479,-0.546,-0.5436,-0.5425,-0.5449,-0.5445,-0.5445,-0.5446,-0.5451,-0.545,-0.5424,-0.5425,-0.5425,0,-0.5917,-0.5902,-0.585,-0.5833,-0.5811,-0.5783,-0.5762,-0.5723,-0.5703,-0.5658,-0.5646,-0.5611,-0.5582,-0.5532,-0.5495,-0.546,-0.5449,-0.5453,-0.5443,-0.5454,-0.5449,-0.5451,-0.5449,-0.5456,-0.5456,-0.5456,-0.5457,0,-0.5935,-0.5917,-0.5888,-0.5853,-0.5829,-0.5799,-0.5768,-0.5756,-0.571,-0.5689,-0.5655,-0.5632,-0.5587,-0.5553,-0.5514,-0.5488,-0.5465,-0.546,-0.5458,-0.5468,-0.5483,-0.5476,-0.5457,-0.546,-0.546,-0.546,-0.5459,-0.5459,-0.5953,-0.5938,-0.59,-0.5869,-0.5841,-0.5813,-0.5794,-0.5763,-0.5735,-0.5695,-0.5673,-0.564,-0.5602,-0.5547,-0.5523,-0.5496,-0.5488,-0.5485,-0.5484,-0.5484,-0.5487,-0.5487,-0.5489,-0.5489,-0.5489,-0.5488,-0.5488,0,-0.597,-0.5943,-0.5915,-0.5872,-0.5848,-0.5828,-0.5792,-0.5773,-0.5745,-0.5711,-0.5682,-0.5644,-0.5611,-0.5571,-0.5535,-0.5522,-0.551,-0.5513,-0.5514,-0.5509,-0.5496,-0.5502,-0.5524,-0.5524,-0.5524,-0.5524,-0.5524,-0.5524,-0.5976,-0.5949,-0.5927,-0.5886,-0.5859,-0.5827,-0.5809,-0.5782,-0.5755,-0.5714,-0.5686,-0.566,-0.5624,-0.5585,-0.5553,-0.5542,-0.5531,-0.5538,-0.5524,-0.5513,-0.551,-0.5507,-0.5512,-0.5536,-0.5536,-0.5539,-0.5539,-0.5539]},{"header":{"parameterUnit":"m.s-1","parameterCategory":1,"la1":30.2991,"la2":30.254,"lo1":-89.0895,"lo2":-89.0444,"dy":0.0017,"dx":0.0017,"nx":28,"ny":28,"refTime":"2024-06-12T09:00:00:Z","depth":0,"parameterNumber":3,"parameterNumberName":"V-component_of_WINDS"},"data":[0,0,0,0,0,0,0,0,0,0,0,0,0,0,0,0,0,0,0,0,0,0,0,0,0,0,0,0,0,0,0,0,0,0,0,0,0,0,0,0,0,0,0,0,0,0,0,0,0,0,0,0,0,0,0,0,0,0,-0.8337,-0.8338,0,-0.8439,-0.844,-0.8441,-0.8497,-0.8497,-0.8497,-0.8497,-0.8603,-0.8606,-0.8608,0,0,0,0,0,0,0,0,0,0,0,0,0,-0.819,-0.8193,-0.8337,-0.8338,-0.8339,-0.8439,-0.844,-0.8441,-0.8497,-0.8497,-0.8497,-0.8497,-0.8602,-0.8605,-0.8609,0,0,0,0,0,0,0,0,0,0,0,0,0,-0.8269,-0.8194,-0.8336,-0.8379,-0.8384,-0.8438,-0.844,-0.8442,-0.8497,-0.8497,-0.8497,-0.8497,-0.8601,-0.8605,-0.8609,-0.863,0,0,-0.8621,-0.8623,0,0,0,0,0,0,0,0,-0.8265,-0.8275,-0.8371,-0.8376,-0.8381,-0.8455,-0.8427,-0.8505,-0.8497,-0.8454,-0.8497,-0.8498,-0.8554,-0.8562,-0.858,-0.8635,-0.8639,-0.8622,-0.8624,-0.8626,-0.8627,0,0,0,0,0,0,0,-0.8259,-0.8271,-0.8377,-0.8373,-0.8379,-0.8393,-0.8404,-0.8442,-0.8501,-0.8458,-0.8462,-0.8473,-0.8557,-0.8576,-0.8583,-0.8641,-0.8622,-0.8625,-0.8628,-0.8629,-0.8719,-0.8719,0,0,0,0,0,0,-0.8247,-0.8266,-0.8374,-0.838,-0.8322,-0.8395,-0.8408,-0.8431,-0.8501,-0.8512,-0.8473,-0.8475,-0.8569,-0.8579,-0.8587,-0.8617,-0.8626,-0.863,-0.8632,-0.8719,-0.8719,-0.8719,0,0,0,0,0,0,-0.8244,-0.8256,-0.837,-0.8324,-0.834,-0.8398,-0.8423,-0.8433,-0.8453,-0.8513,-0.8524,-0.8482,-0.857,-0.8582,-0.8619,-0.8622,-0.8631,-0.8635,-0.8719,-0.8719,-0.8719,-0.8677,0,0,0,0,0,0,-0.8239,-0.8254,-0.8263,-0.8324,-0.8342,-0.8399,-0.8423,-0.8435,-0.846,-0.8464,-0.8524,-0.8535,-0.8571,-0.8613,-0.8623,-0.8627,-0.8638,-0.8719,-0.8719,-0.8719,-0.8678,-0.8675,-0.8673,0,0,0,0,0,-0.8234,-0.8247,-0.8263,-0.8276,-0.8353,-0.8399,-0.841,-0.8451,-0.846,-0.8469,-0.8507,-0.8533,-0.8619,-0.8616,-0.8628,-0.8634,-0.8719,-0.8719,-0.8719,-0.8679,-0.8676,-0.8673,0,0,0,0,0,0,-0.8184,-0.8256,-0.8274,-0.8307,-0.8347,-0.8408,-0.8421,-0.8446,-0.8484,-0.8486,-0.8536,-0.8549,-0.8582,-0.8612,-0.8607,-0.8658,-0.8672,-0.8674,-0.8638,-0.8635,-0.8632,-0.8625,-0.8642,0,0,0,0,0,-0.8177,-0.8208,-0.8269,-0.8292,-0.8311,-0.8362,-0.8384,-0.8413,-0.8456,-0.8473,-0.8514,-0.8555,-0.8592,-0.8615,-0.8652,-0.8682,-0.8697,-0.8692,-0.8689,-0.8687,-0.8689,-0.8708,-0.8707,-0.8718,-0.8718,-0.8718,0,0,-0.8163,-0.8206,-0.8223,-0.8284,-0.8318,-0.8349,-0.8376,-0.8408,-0.8432,-0.8478,-0.8516,-0.8547,-0.8596,-0.8631,-0.8648,-0.8656,-0.8689,-0.8687,-0.8684,-0.8688,-0.8708,-0.8707,-0.8706,-0.8718,-0.8718,-0.8718,0,0,-0.8154,-0.8189,-0.8213,-0.8246,-0.8297,-0.8331,-0.8337,-0.8395,-0.8418,-0.8457,-0.8492,-0.8521,-0.8583,-0.8617,-0.8642,-0.8646,-0.8671,-0.8657,-0.8643,-0.8661,-0.866,-0.866,-0.8662,-0.8662,-0.8658,-0.8658,-0.8658,0,-0.813,-0.8179,-0.8222,-0.8252,-0.8279,-0.8321,-0.8346,-0.8376,-0.8436,-0.8454,-0.8462,-0.8541,-0.8577,-0.8621,-0.8622,-0.864,-0.8649,-0.865,-0.8657,-0.8657,-0.8657,-0.866,-0.8661,-0.8656,-0.8656,-0.8656,-0.8656,0,-0.8148,-0.8181,-0.8194,-0.8251,-0.8279,-0.8306,-0.8354,-0.8377,-0.8403,-0.8436,-0.8476,-0.852,-0.8568,-0.858,-0.8605,-0.8627,-0.8631,-0.8647,-0.8662,-0.8653,-0.8657,-0.8658,-0.8653,-0.8654,-0.8654,-0.8655,0,0,-0.8111,-0.8192,-0.8196,-0.8223,-0.8282,-0.8309,-0.8338,-0.8384,-0.8404,-0.8444,-0.847,-0.8522,-0.8538,-0.8566,-0.8596,-0.8612,-0.8613,-0.8627,-0.8629,-0.8624,-0.8641,-0.8629,-0.863,-0.863,-0.863,-0.8631,-0.8638,0,-0.8111,-0.8166,-0.8206,-0.8245,-0.8277,-0.8318,-0.8343,-0.8383,-0.8415,-0.8447,-0.8482,-0.8518,-0.8536,-0.8554,-0.8571,-0.8609,-0.8618,-0.8609,-0.8656,-0.8658,-0.8644,-0.8632,-0.8619,-0.8623,-0.8639,-0.8639,-0.864,0,-0.8119,-0.8158,-0.82,-0.8257,-0.8272,-0.8294,-0.834,-0.837,-0.8416,-0.8438,-0.847,-0.85,-0.8534,-0.8545,-0.8593,-0.8586,-0.8608,-0.8629,-0.8631,-0.8637,-0.8649,-0.8639,-0.8625,-0.8626,-0.8642,-0.8642,-0.8642,0,-0.8089,-0.8152,-0.8186,-0.8208,-0.8274,-0.8289,-0.8318,-0.8364,-0.8389,-0.8429,-0.8446,-0.8489,-0.8513,-0.8546,-0.8588,-0.8592,-0.8632,-0.8646,-0.8652,-0.8651,-0.8659,-0.8658,-0.865,-0.8671,-0.8671,-0.8671,-0.8671,0,-0.8086,-0.811,-0.8174,-0.8195,-0.8224,-0.827,-0.8297,-0.8329,-0.837,-0.8398,-0.8436,-0.8462,-0.8515,-0.8547,-0.858,-0.8615,-0.8626,-0.8645,-0.8654,-0.8642,-0.864,-0.8658,-0.8659,-0.8671,-0.8671,-0.8671,-0.8671,0,-0.8058,-0.8101,-0.8141,-0.8201,-0.8216,-0.8235,-0.8287,-0.8309,-0.8343,-0.8378,-0.8389,-0.8442,-0.8483,-0.8528,-0.8583,-0.8605,-0.8638,-0.865,-0.8623,-0.8628,-0.8632,-0.8631,-0.8635,-0.8639,-0.8656,-0.8656,-0.8656,0,-0.8053,-0.8074,-0.8135,-0.8157,-0.8185,-0.8219,-0.8245,-0.829,-0.8316,-0.837,-0.8386,-0.8429,-0.8466,-0.8528,-0.8572,-0.8615,-0.8629,-0.8627,-0.8636,-0.8624,-0.863,-0.8629,-0.8632,-0.8625,-0.8625,-0.8624,-0.8624,0,-0.8041,-0.8062,-0.8098,-0.8141,-0.8171,-0.8207,-0.8245,-0.8261,-0.8314,-0.8341,-0.8383,-0.8411,-0.8468,-0.8511,-0.8559,-0.8589,-0.8616,-0.8621,-0.8625,-0.8614,-0.8598,-0.8608,-0.8617,-0.8621,-0.8621,-0.8622,-0.8622,-0.8622,-0.8026,-0.8046,-0.8093,-0.8132,-0.8165,-0.82,-0.8224,-0.8261,-0.8296,-0.8345,-0.837,-0.8412,-0.8458,-0.8525,-0.8554,-0.8588,-0.8596,-0.8602,-0.8603,-0.8604,-0.8602,-0.8591,-0.8597,-0.8597,-0.8597,-0.8597,-0.8597,0,-0.8017,-0.8049,-0.8084,-0.8136,-0.8167,-0.8189,-0.8232,-0.8257,-0.8293,-0.8333,-0.8369,-0.8417,-0.8458,-0.8505,-0.855,-0.8568,-0.8582,-0.8578,-0.8578,-0.8585,-0.8591,-0.8584,-0.8567,-0.8567,-0.8567,-0.8567,-0.8567,-0.8567,-0.8016,-0.8052,-0.8077,-0.813,-0.8162,-0.8203,-0.8226,-0.8258,-0.8291,-0.8343,-0.8377,-0.8408,-0.8451,-0.8499,-0.8539,-0.8552,-0.8567,-0.856,-0.8577,-0.8582,-0.8584,-0.8587,-0.858,-0.8563,-0.8563,-0.8568,-0.8568,-0.8568]}]]